User: anonymous   Login
Location: Morehead State University
(38.1872°N, 83.4339°W)
Time: 07:09:41
(UTC-04:00)
Language:

Okean 2 - Orbit

View from above orbital plane
View from above orbital plane
View from above satellite
View from above satellite

Ground track
Ground track

The orbit data is extracted from the following two-line orbital elements,

1 20510U 90018A   17290.72271979  .00000495  00000-0  38614-4 0  9993
2 20510  82.5171  53.7877 0010757 290.8602 156.9777 14.99009971499809
Epoch (UTC): 17 October 2017 17:20:42
Eccentricity: 0.0010757
inclination: 82.5171°
perigee height: 562 km
apogee height: 577 km
right ascension of ascending node: 53.7877°
argument of perigee: 290.8602°
revolutions per day: 14.99009971
mean anomaly at epoch: 156.9777°
orbit number at epoch: 49980

The dashed part of the orbit path shows where the satellite is in the earth's shadow,  

DLR